Regional Weather Roundup
Issued by NWS Albany, NY

Home | Current Version | Previous Version | Text Only | Print | Product List | Glossary On
Versions: 1 2 3 4 5 6 7 8 9 10 11 12 13 14 15 16 17 18 19 20 21 22 23 24 25 26 27
000
ASUS41 KALY 201510
RWRALY

NEW YORK STATE HOURLY WEATHER ROUNDUP
NATIONAL WEATHER SERVICE ALBANY NY
1000 AM EST MON NOV 20 2017

NOTE: "FAIR" INDICATES FEW OR NO CLOUDS BELOW 12,000 FEET WITH NO
SIGNIFICANT WEATHER AND/OR NO OBSTRUCTIONS TO VISIBILITY.

NYZ032-033-038>043-046>054-057>066-NYZ062>081-082-084-201600-
EAST


CITY           SKY/WX    TMP DP  RH WIND       PRES   REMARKS
ALBANY         FLURRIES  31  20  63 W9        29.98R WCI  23
GLENS FALLS    CLOUDY    31  15  52 SW10      29.93S WCI  22
POUGHKEEPSIE   CLOUDY    39  20  46 W14       29.99S WCI  31
NEWBURGH       PTSUNNY   36  25  64 W14G23    30.00R WCI  27
MONTGOMERY     CLOUDY    38  24  57 W16G25    30.00R WCI  29
WHITE PLAINS   PTSUNNY   38  26  62 W14       30.00R WCI  30
ISLIP          FLURRIES  41  24  51 W21G28    30.02R
NEW YORK CITY  PTSUNNY   41  24  51 W14G23    30.04S
CENTRAL PARK   PTSUNNY   40  24  53 W9        30.06  WCI  34
$$

NYZ005>009-017-018-044>046-055-056-201600-
CENTRAL


CITY           SKY/WX    TMP DP  RH WIND       PRES   REMARKS
FULTON         CLOUDY    33  23  66 SW15G24   29.94S WCI  23
SYRACUSE       FLURRIES  32  23  69 SW18      29.95S WCI  20
ROME           FLURRIES  26  24  92 SE3       29.96F
ELMIRA         CLOUDY    35  24  64 W10       29.99S WCI  27
BINGHAMTON     CLOUDY    30  20  66 W13       29.95R WCI  20
MONTICELLO     CLOUDY    32  22  66 W14G23    29.96S WCI  22
$$

NYZ026>034-041>043-087-201600-
NORTH


CITY           SKY/WX    TMP DP  RH WIND       PRES   REMARKS
WATERTOWN      LGT SNOW  27  25  92 S6        29.91F FOG     WCI  20
FORT DRUM      NOT AVBL
OGDENSBURG     LGT SNOW  25  21  87 CALM      29.91S VSB 3/4
MASSENA        LGT SNOW  22  17  81 SW7       29.93S WCI  13
SARANAC LAKE   LGT SNOW  18  15  88 SW9       29.81S FOG     WCI   7
PLATTSBURGH    CLOUDY    25   9  50 W7        29.90S WCI  17
$$

NYZ001>004-010>016-019>021-085-201600-
WEST


CITY           SKY/WX    TMP DP  RH WIND       PRES   REMARKS
NIAGARA FALLS  CLOUDY    35  22  58 W15G21    29.99F WCI  25
BUFFALO        CLOUDY    34  23  64 W12G21    29.99F WCI  25
DUNKIRK        FLURRIES  34  28  79 SW15G26   30.02S WCI  24
JAMESTOWN      FLURRIES  28  25  88 SW17G23   30.01S WCI  16
WELLSVILLE     LGT SNOW  29  23  78 W13G22    29.97S WCI  19
ROCHESTER      CLOUDY    34  23  64 W18G28    29.99R WCI  23
PENN YAN       CLOUDY    34  22  61 W17G25    29.98R WCI  23
$$

             KEY
       WCI = WIND CHILL INDEX
       VSB = VISIBILITY
       HX  = HEAT INDEX
$$




USA.gov is the U.S. government's official web portal to all federal, state and local government web resources and services.